RH
20 19 18 17 17 18 18 19 19 17 16 14 14 14 13 11 11 11 10 10 11 10 10 10 10 10 9 10 9 9 9 9 8 10 14 12 13 14 13 13 12 10 10 9 11 14 13 13 13 12 11 12 11 11 12 13 13 13 14 13 12 12 13 12 13 15 16 17 17 20 21 20 20 17 16 17 15 14 15 23 31 33 38 41 44 54 57 54
21 21 21 21 21 21 21 20 18 16 14 13 13 13 12 12 11 10 10 11 11 11 11 10 10 9 9 10 9 9 9 9 9 10 11 13 14 14 13 13 11 10 10 9 12 13 13 13 12 12 13 13 13 12 12 12 13 13 13 13 12 12 12 12 15 16 16 17 18 21 22 20 18 15 16 19 18 18 16 21 31 31 34 40 44 54 62 62
25 24 24 24 23 22 20 19 18 16 14 13 12 12 12 12 11 11 10 10 10 10 10 9 9 9 9 9 9 9 8 9 12 12 12 14 14 12 11 11 10 10 10 9 12 12 13 16 15 14 14 14 14 13 13 13 14 14 13 13 12 11 12 14 17 18 19 20 19 20 20 17 16 15 17 19 18 21 19 18 27 33 35 41 45 52 60 62
26 25 25 24 24 22 21 20 19 18 16 14 12 12 13 12 12 11 9 9 9 9 9 8 8 8 9 8 8 9 11 18 20 16 14 14 12 11 10 9 10 10 10 11 13 13 15 18 18 16 15 14 13 13 13 13 15 14 13 12 11 13 15 17 20 20 19 18 17 18 17 15 15 15 15 16 16 20 21 19 26 34 37 42 49 55 59 59
26 25 25 25 25 23 23 23 21 20 19 17 15 12 13 13 11 10 9 8 8 8 8 8 7 8 8 7 7 9 19 29 25 19 17 14 11 10 11 9 10 10 10 13 13 15 17 19 17 16 15 13 13 13 14 14 14 14 14 13 12 14 15 17 19 18 15 14 15 16 15 15 15 15 14 15 18 20 25 28 30 34 37 40 49 56 59 58
27 26 26 27 27 25 26 25 22 21 20 21 19 14 12 12 10 9 10 9 8 8 7 7 7 7 7 7 8 12 26 31 23 22 21 18 14 11 10 9 10 10 11 14 14 14 17 17 15 14 14 13 13 14 16 16 14 14 14 13 13 13 14 15 16 15 14 13 14 14 14 15 14 14 14 16 19 22 28 31 31 35 40 41 44 53 57 57
28 27 27 28 28 28 28 26 22 21 20 22 22 18 13 10 10 9 9 9 9 8 7 7 6 6 6 7 11 16 27 28 21 20 16 14 15 12 11 10 10 10 12 14 14 15 14 13 14 13 12 12 12 13 16 16 15 15 14 14 14 13 14 14 14 14 14 13 12 12 13 14 14 13 16 18 18 24 31 34 33 37 46 49 49 53 56 58
29 29 29 28 28 29 28 26 23 22 20 20 22 22 16 10 10 9 9 10 10 9 8 7 6 6 7 8 14 19 25 25 18 16 11 10 12 11 10 10 9 10 12 13 14 15 14 13 13 12 11 12 12 13 15 16 14 14 14 13 13 13 13 13 13 13 12 12 11 12 12 13 13 13 17 20 20 29 37 40 42 41 47 52 52 52 52 56
28 29 29 29 29 29 28 26 23 21 20 20 20 22 21 14 10 10 11 11 10 10 8 8 7 7 8 10 19 28 27 23 18 13 10 10 10 9 9 9 9 10 12 14 15 16 14 13 13 12 13 13 14 13 13 14 14 14 14 13 12 12 13 13 13 12 12 11 10 11 12 12 13 14 15 17 24 36 41 42 45 46 49 52 55 55 49 52
25 26 28 29 29 28 26 24 22 20 19 20 19 21 22 17 11 11 11 11 11 11 10 9 7 8 10 16 29 34 27 22 19 13 10 9 9 8 9 10 10 11 13 16 16 15 14 13 14 14 14 13 14 15 13 13 13 13 14 13 12 12 12 13 13 13 13 13 12 12 13 12 14 15 15 19 30 39 41 42 43 44 45 50 56 55 47 47
22 23 24 25 27 25 24 22 21 20 19 20 20 20 21 17 13 12 11 11 11 11 11 9 8 9 12 21 33 31 23 20 17 12 11 10 9 9 11 12 11 11 16 17 16 15 13 13 14 14 13 13 14 14 12 12 12 12 13 13 12 12 11 11 12 14 15 13 13 13 14 14 15 17 15 23 34 35 38 42 41 40 39 44 48 47 43 44
19 19 20 20 21 21 20 21 21 20 19 19 20 20 20 18 15 13 11 11 11 11 11 10 11 11 13 22 29 24 18 16 14 11 11 10 9 10 11 11 11 14 18 17 14 13 12 13 13 13 14 15 14 13 11 11 12 12 12 12 11 12 11 11 11 13 14 13 14 14 14 14 16 16 16 26 33 32 40 44 41 40 40 41 43 44 44 46
17 16 16 16 16 17 17 18 20 20 18 19 21 20 19 19 18 16 12 11 11 11 11 11 11 12 19 28 24 18 15 13 12 11 11 10 10 11 11 11 11 15 19 17 14 12 13 13 13 13 15 16 15 15 15 14 12 11 11 10 10 12 12 12 12 13 13 12 14 15 14 14 15 15 19 30 31 32 43 45 43 44 44 43 45 49 50 52
15 14 13 13 13 13 15 16 17 17 17 17 21 20 19 19 18 18 15 13 12 11 11 11 12 15 26 31 20 14 14 12 11 11 11 11 11 10 10 10 11 13 17 17 14 13 13 12 12 13 13 14 16 17 16 15 13 11 11 11 10 11 13 16 14 13 14 13 14 16 15 16 19 19 22 28 29 31 41 47 48 48 46 46 49 52 55 54
14 13 13 12 11 12 14 15 15 14 14 15 19 21 20 19 19 19 18 17 15 12 11 12 15 19 29 31 22 16 13 12 12 10 11 11 11 11 9 9 10 11 14 14 14 13 12 11 11 12 12 13 13 14 15 15 14 12 13 13 12 12 17 20 18 16 16 16 16 15 14 16 22 26 26 25 28 33 41 50 52 51 50 50 52 52 53 52
13 12 12 12 11 12 12 14 14 13 12 13 16 18 19 19 20 19 19 18 17 14 12 16 22 25 31 32 26 18 13 14 14 11 10 12 13 12 11 10 11 11 12 12 12 12 11 11 12 12 14 16 14 14 15 15 17 16 13 14 17 17 17 20 22 21 20 20 20 17 13 17 23 28 28 24 26 31 39 49 51 52 55 54 54 52 51 51
12 12 12 12 12 12 12 13 12 12 12 12 15 17 18 19 21 21 21 19 18 15 13 19 26 28 29 27 23 19 16 17 16 13 12 13 15 14 13 13 14 14 13 13 13 12 13 11 13 13 13 17 16 15 16 18 24 24 18 18 21 21 18 20 25 26 24 24 24 19 13 20 27 28 28 26 24 26 31 42 49 53 56 54 53 52 53 56
12 13 13 13 13 12 12 12 12 12 11 12 16 17 17 18 19 20 21 20 20 17 15 19 24 28 32 28 25 22 21 21 18 15 14 14 16 15 15 15 15 15 14 14 13 13 15 13 14 17 17 17 15 17 23 28 33 32 28 24 23 24 22 21 25 28 28 26 27 23 15 21 29 29 28 26 23 25 26 32 46 55 56 54 54 54 55 55
12 14 14 13 13 13 13 13 13 13 13 16 16 16 21 23 24 25 23 23 22 19 22 25 24 28 32 31 30 26 23 22 19 16 16 15 16 16 16 16 16 16 15 17 17 15 16 16 19 21 23 20 17 21 28 31 33 34 35 30 26 27 26 24 25 28 30 28 26 23 19 21 26 30 29 25 23 24 25 27 38 52 56 54 52 52 50 50
13 14 14 14 14 13 13 13 13 14 15 17 16 20 33 36 36 38 34 29 24 21 26 29 25 25 30 31 30 27 23 20 18 19 18 15 16 16 17 17 16 16 16 21 24 20 17 20 24 23 24 26 24 25 25 26 30 33 35 32 30 30 27 26 26 28 29 29 27 24 24 23 23 28 30 29 28 26 27 28 29 42 54 53 52 53 51 51
14 15 15 15 15 14 13 12 13 16 16 17 16 23 38 37 33 38 37 30 26 23 24 28 24 23 31 37 31 25 22 20 19 19 19 17 16 17 17 17 17 17 17 22 26 25 19 20 23 23 26 30 30 28 24 23 27 30 30 26 28 31 27 27 29 32 33 29 28 27 26 27 26 29 31 30 34 32 28 29 27 30 39 43 46 55 57 55
16 16 16 15 14 15 16 15 15 15 15 16 16 22 34 33 26 28 29 25 26 26 23 25 25 22 28 34 29 23 22 21 20 20 19 18 16 17 18 16 17 21 22 22 25 26 21 18 21 23 25 28 28 27 23 20 20 24 25 18 21 28 27 28 31 34 35 29 26 24 25 30 29 28 31 31 33 32 27 27 26 24 28 32 35 43 50 52
18 16 16 17 16 15 17 19 19 17 16 16 18 22 29 29 23 25 25 23 27 29 25 23 24 23 23 28 26 22 22 24 24 23 21 18 17 18 20 19 18 21 23 23 24 24 24 25 24 22 23 24 24 24 21 18 17 18 20 17 20 27 26 28 31 32 34 31 26 24 24 28 29 28 31 34 32 29 27 26 25 23 26 29 30 35 39 43
20 17 15 15 16 16 16 17 18 18 17 17 18 21 26 26 26 28 28 26 27 29 29 25 24 22 22 28 28 21 23 29 30 27 24 20 19 18 20 20 20 19 19 24 25 21 23 31 28 23 24 24 21 20 18 17 17 17 19 18 21 29 29 29 33 33 34 34 32 31 26 23 26 28 27 29 28 25 26 27 24 23 25 27 29 34 34 36
17 18 16 14 13 15 15 15 18 19 19 21 22 25 28 27 28 30 31 31 31 34 35 29 23 23 27 30 27 23 26 31 31 29 27 22 20 20 21 21 22 21 21 28 28 21 25 33 28 23 25 25 22 19 19 21 22 22 22 22 22 27 31 33 36 35 34 36 36 35 31 24 22 24 24 27 29 29 30 29 25 23 26 27 29 35 36 36
15 16 17 16 15 15 16 18 22 23 23 29 32 32 30 28 28 31 34 37 40 42 39 32 25 24 30 31 26 23 27 30 29 28 27 23 20 21 23 22 21 20 24 31 29 25 30 31 25 23 23 23 23 20 21 25 26 25 25 24 24 24 27 31 34 33 34 36 37 36 35 32 28 28 30 32 34 37 37 35 33 28 26 28 30 34 39 43
17 15 15 16 16 16 17 22 25 23 28 38 40 36 30 28 29 32 39 46 47 45 39 34 31 28 31 35 29 25 29 33 32 29 29 27 24 23 24 24 23 22 24 27 26 25 28 27 23 23 23 22 23 22 23 24 26 28 29 27 27 27 27 26 26 28 30 30 32 32 31 31 31 29 31 32 35 39 39 39 38 33 29 30 31 31 35 42
22 19 17 17 17 17 18 22 24 24 31 39 38 35 31 29 30 34 48 57 49 41 38 35 34 30 32 35 30 26 30 34 35 34 33 31 27 25 24 24 25 29 31 28 27 27 26 27 28 26 25 23 21 21 23 25 27 28 29 28 28 30 30 28 26 27 28 28 30 29 28 29 30 28 29 32 35 39 39 39 38 33 32 33 32 31 32 34
26 24 22 22 20 19 18 20 21 23 29 31 30 29 27 27 30 37 55 62 47 38 38 37 35 32 33 35 29 26 28 29 32 35 33 31 28 26 26 25 23 29 34 29 26 27 27 29 29 28 29 26 22 26 28 29 32 31 29 30 30 30 31 31 31 30 31 33 33 32 31 33 34 31 32 34 35 38 40 41 40 36 35 35 33 33 34 35
24 25 25 25 24 25 25 23 23 23 25 27 28 27 25 25 31 43 57 55 43 40 40 40 41 36 33 35 31 28 30 30 30 31 30 30 28 24 25 26 25 26 29 27 23 26 31 30 27 27 28 26 27 32 31 28 31 32 31 33 33 31 30 32 33 33 36 37 33 32 32 34 35 34 36 38 37 39 42 44 44 41 39 38 36 35 36 37
21 24 25 26 26 28 32 32 29 26 24 26 27 24 22 25 34 48 56 48 41 42 40 39 41 37 33 34 32 30 32 34 33 32 31 30 29 26 25 26 27 27 28 28 25 26 31 30 27 26 23 22 25 27 26 25 28 30 29 32 32 30 32 34 34 36 38 37 33 34 35 36 38 39 40 40 39 42 43 44 45 46 45 43 40 40 40 40
21 23 26 29 28 25 29 33 33 30 27 26 25 22 25 34 38 42 47 49 49 46 41 39 37 35 34 32 30 31 33 36 38 37 33 31 31 30 28 29 29 29 29 30 31 32 34 34 34 32 25 22 22 22 21 21 22 24 24 28 30 31 37 41 41 43 43 40 39 40 41 40 39 41 40 38 38 41 43 43 46 46 47 43 40 41 42 40
24 23 26 31 32 28 27 31 34 34 31 29 27 25 32 43 42 37 38 45 50 46 42 41 38 38 38 33 33 36 36 37 38 38 36 35 36 36 33 31 31 33 36 38 40 40 39 39 39 38 33 28 23 20 22 24 25 26 25 28 33 34 40 46 46 47 48 45 44 43 44 44 42 42 41 39 39 40 41 42 43 44 42 39 37 37 38 38
23 23 24 28 32 32 30 32 34 34 33 31 29 30 38 44 38 36 39 41 45 46 43 41 40 41 38 34 37 39 36 39 40 39 39 38 39 42 41 37 34 37 41 42 43 43 45 45 41 39 38 34 25 18 22 28 31 33 30 33 38 38 43 48 48 48 49 47 45 44 44 44 45 46 44 42 43 42 40 39 40 41 40 36 33 35 37 38
19 21 22 23 27 30 30 32 32 34 34 31 31 37 41 40 32 30 34 35 38 43 43 41 40 40 37 34 37 37 36 41 42 39 38 38 39 41 41 39 38 38 38 38 38 38 40 41 38 37 38 35 28 20 19 21 26 33 34 36 41 41 42 45 46 46 46 46 46 44 44 43 44 46 44 43 43 41 39 37 35 35 35 32 30 32 35 35
13 19 22 23 22 23 28 31 31 34 34 29 35 41 36 31 29 29 32 32 34 38 41 43 40 37 37 37 38 37 37 41 41 39 39 38 37 37 37 38 39 39 35 34 36 36 34 34 34 35 36 33 30 24 19 18 22 29 31 34 40 40 41 44 45 43 41 44 45 40 39 40 40 41 41 41 41 38 36 35 32 31 31 30 31 32 32 32
8 13 21 23 21 23 27 29 31 35 33 29 37 40 31 29 31 33 36 36 35 36 39 43 43 38 38 39 39 38 38 39 39 38 37 36 35 33 33 37 40 38 32 29 31 32 31 33 34 33 34 32 28 23 17 16 18 20 26 34 36 35 39 41 42 42 40 41 41 36 35 35 36 39 39 40 40 39 38 36 36 38 36 35 37 35 31 31
7 9 13 16 24 35 33 28 29 32 32 33 38 36 29 29 32 35 38 38 38 38 38 41 43 41 41 41 40 40 40 39 38 37 34 33 34 32 32 38 40 35 28 24 25 26 25 29 30 29 30 32 30 25 20 17 14 13 19 27 31 33 37 38 40 42 41 40 38 35 33 32 35 39 40 41 42 43 42 40 41 44 43 44 43 38 34 33
8 11 11 12 25 36 33 28 27 29 33 38 38 32 25 24 26 29 34 36 36 34 31 33 37 39 40 40 40 41 42 42 40 39 36 32 34 34 33 37 38 33 28 22 20 21 21 26 28 24 24 28 32 30 24 21 20 16 15 18 21 24 26 28 33 37 38 40 41 39 37 37 41 41 41 44 46 47 47 44 44 46 47 48 45 40 37 37
12 15 20 24 29 30 26 25 26 28 34 36 32 28 25 24 25 28 32 35 33 27 22 24 29 33 35 35 37 41 44 45 42 41 39 35 37 40 37 37 38 36 33 25 20 21 22 26 28 25 22 25 30 31 27 27 29 28 26 25 26 27 27 26 27 27 29 35 39 40 39 42 46 43 42 46 48 51 51 48 47 49 49 49 45 41 39 39
15 17 24 30 30 27 27 26 25 28 32 31 27 25 26 28 31 35 41 42 34 24 19 21 24 30 34 34 37 40 42 44 44 43 42 39 40 42 40 40 40 39 38 30 23 23 24 23 24 23 21 23 25 28 30 31 32 31 33 34 35 38 41 40 36 33 35 39 43 42 41 45 49 45 44 46 46 47 49 50 52 52 50 49 46 44 42 41
15 16 25 30 27 26 30 28 25 28 28 26 26 26 27 30 34 38 45 47 39 25 18 20 22 25 29 33 38 41 41 43 44 44 43 41 42 42 40 40 39 38 38 32 26 27 27 23 22 23 23 22 21 23 27 29 27 27 29 31 31 32 36 38 37 37 38 40 43 43 44 49 51 47 48 48 44 44 47 51 56 54 50 49 47 45 44 42
21 25 32 33 28 27 32 30 26 26 25 24 27 30 32 35 37 39 41 43 41 30 22 21 23 23 24 27 31 34 37 40 41 41 42 41 41 40 38 37 35 33 32 28 25 26 26 22 21 22 21 18 16 15 17 18 18 20 22 22 23 23 24 27 28 29 29 30 33 35 38 46 49 46 46 46 44 46 49 50 55 55 52 50 48 47 47 45
26 32 38 40 36 30 30 29 25 23 24 25 29 31 32 35 39 41 42 43 42 35 27 26 26 25 24 25 26 28 31 35 37 38 38 41 43 41 37 34 32 30 29 28 26 24 24 24 24 25 23 21 18 16 16 19 23 26 25 23 24 22 21 22 23 25 28 28 30 32 33 39 44 41 40 41 40 44 47 49 54 56 51 50 51 49 46 44
31 30 31 35 34 28 25 24 25 28 30 33 39 40 38 39 41 43 43 44 44 40 36 35 33 31 29 28 27 28 28 30 33 34 34 38 40 36 34 32 30 30 30 29 27 23 24 26 27 28 31 29 26 23 26 32 34 34 32 29 29 28 28 29 29 31 35 35 33 33 33 39 44 42 41 41 40 43 45 47 53 55 50 49 52 49 45 43
45 41 39 38 35 30 25 19 19 25 28 33 43 49 49 46 45 46 45 42 39 38 38 37 35 34 34 32 31 32 30 28 29 29 29 31 32 30 30 29 26 28 27 25 23 22 23 24 22 23 25 25 24 23 27 34 36 35 33 31 30 31 32 33 34 36 39 39 38 36 36 40 42 41 43 45 45 46 45 45 51 56 54 53 55 53 49 46
53 52 51 51 50 45 39 33 30 30 30 31 36 41 48 50 45 46 51 47 40 37 36 32 30 32 32 31 33 34 32 29 28 28 26 25 27 30 30 29 29 29 26 22 21 20 21 22 20 20 19 18 18 18 21 27 29 29 29 27 27 28 29 31 34 34 35 39 40 38 40 42 39 38 42 44 43 45 47 50 56 60 61 60 59 60 59 56
59 60 57 55 55 55 53 50 49 47 43 41 38 37 43 49 46 46 52 55 51 46 41 35 31 30 29 30 31 31 31 30 29 30 30 29 30 31 29 30 34 31 26 25 24 22 23 23 20 21 21 18 19 21 23 26 26 25 24 23 23 25 26 28 30 31 33 36 36 35 39 42 38 39 42 42 41 43 47 51 55 61 66 66 63 65 66 64
55 61 60 57 56 57 55 52 51 50 47 45 44 42 41 42 42 43 46 53 54 51 48 46 39 31 29 30 31 34 39 40 38 37 36 36 37 36 35 37 39 37 32 31 30 30 31 31 28 26 24 22 23 26 27 28 28 27 25 23 22 24 26 27 28 28 32 35 34 34 38 39 38 39 42 42 42 44 45 47 50 55 62 66 67 68 68 67
42 48 52 54 56 54 51 49 47 45 44 43 42 43 41 38 38 40 42 49 53 52 51 52 47 41 35 31 32 40 46 45 44 44 41 39 41 41 41 43 43 43 41 39 40 41 41 43 42 39 35 30 27 27 28 29 29 28 26 25 25 25 26 28 29 30 32 35 36 38 39 38 36 37 40 41 43 45 46 47 50 51 54 58 63 66 67 66
32 37 42 49 55 55 52 53 51 47 47 50 48 44 42 40 39 40 43 47 50 51 50 48 46 44 40 37 40 46 44 37 37 39 37 37 41 42 42 41 41 43 44 45 49 49 47 48 49 48 46 41 36 36 35 33 33 32 30 30 30 30 31 32 33 32 33 36 39 40 40 38 38 40 40 39 42 46 47 48 51 53 53 53 55 60 65 67
24 28 33 40 50 52 51 55 60 60 59 59 54 48 46 46 46 47 49 47 44 45 47 44 42 41 40 42 44 43 39 36 35 33 30 31 33 34 35 36 36 39 41 45 51 52 49 50 52 53 50 46 45 47 45 44 43 38 35 36 35 35 38 39 36 36 37 40 44 43 41 41 44 46 45 45 46 47 48 50 52 54 54 54 55 59 64 67